HISTORICAL SENSOR DATA

Sensor Data Report

DB LIVE
CURRENT TIME--:--:--
DEVICE NETWORK Gateway Status
13 ESP · realtime ~1s · history 60s
Weather WS-MOD-01
OFFLINE
Actuator ACT-MOD-01
OFFLINE
Mainboard L3 MB-L3-01
OFFLINE
Mainboard L5 MB-L5-01
OFFLINE
Remote AC AC-REMOTE-01
OFFLINE
PZEM L3-01 PWR-L3-01
OFFLINE
PZEM L3-02 PWR-L3-02
OFFLINE
PZEM L3-03 PWR-L3-03
OFFLINE
PZEM L3-04 PWR-L3-04
OFFLINE
PZEM L5-01 PWR-L5-01
OFFLINE
PZEM L5-02 PWR-L5-02
OFFLINE
PZEM L5-03 PWR-L5-03
OFFLINE
PZEM L5-04 PWR-L5-04
OFFLINE
REPORT FILTER

Periode & Sensor

DATABASE HISTORY
RESET
QUICK RANGE Hari ini 7 hari 30 hari
PERIODE28 Aug 2026sampai 03 Sep 2026
TOTAL DATA40,294sensor readings
MINIMUM-0.50sesuai filter
AVERAGE56.76sesuai filter
MAXIMUM998.00sesuai filter
REPORT RESULT

Data Sensor

28/08/2026 — 03/09/2026 EXPORT CSV
NOTANGGALWAKTUDEVICECHANNELSENSORVALUEUNIT
10501 02/09/2026 14:55:31 MB-L5-01Mainboard Lantai 5 L5-RAD-01 Radiation 1 1.00 W/m²
10502 02/09/2026 14:55:31 MB-L3-01Mainboard Lantai 3 L3-SHT-02-T SHT20 2 Temperature 32.10 °C
10503 02/09/2026 14:55:31 MB-L5-01Mainboard Lantai 5 L5-AI-02 Analog Input 2 3.05 V
10504 02/09/2026 14:55:31 MB-L3-01Mainboard Lantai 3 L3-BGT-03 Black Globe Temperature 3 29.10 °C
10505 02/09/2026 14:55:31 MB-L5-01Mainboard Lantai 5 L5-SHT-01-RH SHT20 1 Humidity 48.50 %RH
10506 02/09/2026 14:55:31 MB-L3-01Mainboard Lantai 3 L3-LUX-05 Illuminance / LUX 5 39.80 lux
10507 02/09/2026 14:55:31 MB-L3-01Mainboard Lantai 3 L3-ST-02 Surface Temperature 2 29.70 °C
10508 02/09/2026 14:55:31 MB-L5-01Mainboard Lantai 5 L5-LUX-01 Illuminance / LUX 1 205.30 lux
10509 02/09/2026 14:55:31 MB-L5-01Mainboard Lantai 5 L5-AI-01 Analog Input 1 3.05 V
10510 02/09/2026 14:55:31 MB-L3-01Mainboard Lantai 3 L3-AI-06 Analog Input 6 3.12 V
10511 02/09/2026 14:55:31 MB-L3-01Mainboard Lantai 3 L3-LUX-06 Illuminance / LUX 6 25.30 lux
10512 02/09/2026 14:55:31 MB-L3-01Mainboard Lantai 3 L3-AI-01 Analog Input 1 3.12 V
10513 02/09/2026 14:55:31 MB-L5-01Mainboard Lantai 5 L5-BGT-03 Black Globe Temperature 3 29.80 °C
10514 02/09/2026 14:55:31 MB-L3-01Mainboard Lantai 3 L3-SHT-01-T SHT20 1 Temperature 32.10 °C
10515 02/09/2026 14:55:31 MB-L3-01Mainboard Lantai 3 L3-HFT-01 Heat Flow Temperature 1 29.40 °C
10516 02/09/2026 14:55:31 MB-L5-01Mainboard Lantai 5 L5-LUX-03 Illuminance / LUX 3 158.90 lux
10517 02/09/2026 14:55:31 MB-L5-01Mainboard Lantai 5 L5-BGT-02 Black Globe Temperature 2 29.90 °C
10518 02/09/2026 14:55:31 MB-L3-01Mainboard Lantai 3 L3-LUX-02 Illuminance / LUX 2 31.50 lux
10519 02/09/2026 14:55:31 MB-L3-01Mainboard Lantai 3 L3-SHT-01-RH SHT20 1 Humidity 48.50 %RH
10520 02/09/2026 14:55:31 MB-L5-01Mainboard Lantai 5 L5-BGT-01 Black Globe Temperature 1 30.00 °C
10521 02/09/2026 14:55:31 MB-L3-01Mainboard Lantai 3 L3-AI-02 Analog Input 2 3.12 V
10522 02/09/2026 14:55:31 MB-L5-01Mainboard Lantai 5 L5-SHT-01-T SHT20 1 Temperature 32.30 °C
10523 02/09/2026 14:55:31 MB-L3-01Mainboard Lantai 3 L3-LUX-04 Illuminance / LUX 4 56.50 lux
10524 02/09/2026 14:55:31 MB-L5-01Mainboard Lantai 5 L5-HFT-02 Heat Flow Temperature 2 29.90 °C
10525 02/09/2026 14:55:31 MB-L3-01Mainboard Lantai 3 L3-HFT-02 Heat Flow Temperature 2 29.10 °C
10526 02/09/2026 14:55:31 MB-L5-01Mainboard Lantai 5 L5-HFT-01 Heat Flow Temperature 1 30.00 °C
10527 02/09/2026 14:55:31 MB-L5-01Mainboard Lantai 5 L5-LUX-06 Illuminance / LUX 6 209.20 lux
10528 02/09/2026 14:55:31 MB-L5-01Mainboard Lantai 5 L5-ST-02 Surface Temperature 2 30.50 °C
10529 02/09/2026 14:55:31 MB-L3-01Mainboard Lantai 3 L3-LUX-03 Illuminance / LUX 3 94.10 lux
10530 02/09/2026 14:55:31 MB-L5-01Mainboard Lantai 5 L5-LUX-04 Illuminance / LUX 4 193.90 lux
10531 02/09/2026 14:55:31 MB-L3-01Mainboard Lantai 3 L3-AI-03 Analog Input 3 3.12 V
10532 02/09/2026 14:55:31 MB-L5-01Mainboard Lantai 5 L5-LUX-02 Illuminance / LUX 2 124.80 lux
10533 02/09/2026 14:55:31 MB-L5-01Mainboard Lantai 5 L5-ST-01 Surface Temperature 1 30.30 °C
10534 02/09/2026 14:55:31 MB-L3-01Mainboard Lantai 3 L3-SHT-03-RH SHT20 3 Humidity 49.30 %RH
10535 02/09/2026 14:55:31 MB-L3-01Mainboard Lantai 3 L3-SHT-02-RH SHT20 2 Humidity 48.50 %RH
10536 02/09/2026 14:55:31 MB-L3-01Mainboard Lantai 3 L3-BGT-01 Black Globe Temperature 1 29.80 °C
10537 02/09/2026 14:55:31 MB-L5-01Mainboard Lantai 5 L5-RAD-02 Radiation 2 1.00 W/m²
10538 02/09/2026 14:55:31 MB-L3-01Mainboard Lantai 3 L3-LUX-01 Illuminance / LUX 1 21.80 lux
10539 02/09/2026 14:55:31 MB-L5-01Mainboard Lantai 5 L5-LUX-05 Illuminance / LUX 5 356.70 lux
10540 02/09/2026 14:55:31 MB-L3-01Mainboard Lantai 3 L3-RAD-02 Radiation 2 1.00 W/m²
10541 02/09/2026 14:55:31 MB-L3-01Mainboard Lantai 3 L3-SHT-03-T SHT20 3 Temperature 31.90 °C
10542 02/09/2026 14:55:31 MB-L5-01Mainboard Lantai 5 L5-AI-06 Analog Input 6 3.05 V
10543 02/09/2026 14:55:31 MB-L5-01Mainboard Lantai 5 L5-SHT-02-RH SHT20 2 Humidity 48.50 %RH
10544 02/09/2026 14:55:31 MB-L3-01Mainboard Lantai 3 L3-AI-04 Analog Input 4 3.12 V
10545 02/09/2026 14:55:29 MB-L5-01Mainboard Lantai 5 L5-AI-02 Analog Input 2 3.05 V
10546 02/09/2026 14:55:29 MB-L3-01Mainboard Lantai 3 L3-BGT-03 Black Globe Temperature 3 29.10 °C
10547 02/09/2026 14:55:29 MB-L5-01Mainboard Lantai 5 L5-SHT-01-RH SHT20 1 Humidity 48.50 %RH
10548 02/09/2026 14:55:29 MB-L3-01Mainboard Lantai 3 L3-LUX-05 Illuminance / LUX 5 35.30 lux
10549 02/09/2026 14:55:29 MB-L3-01Mainboard Lantai 3 L3-ST-02 Surface Temperature 2 29.80 °C
10550 02/09/2026 14:55:29 MB-L5-01Mainboard Lantai 5 L5-LUX-01 Illuminance / LUX 1 205.30 lux
10551 02/09/2026 14:55:29 MB-L5-01Mainboard Lantai 5 L5-AI-01 Analog Input 1 3.05 V
10552 02/09/2026 14:55:29 MB-L3-01Mainboard Lantai 3 L3-AI-06 Analog Input 6 3.12 V
10553 02/09/2026 14:55:29 MB-L3-01Mainboard Lantai 3 L3-LUX-06 Illuminance / LUX 6 31.30 lux
10554 02/09/2026 14:55:29 MB-L3-01Mainboard Lantai 3 L3-AI-01 Analog Input 1 3.12 V
10555 02/09/2026 14:55:29 MB-L5-01Mainboard Lantai 5 L5-BGT-03 Black Globe Temperature 3 29.80 °C
10556 02/09/2026 14:55:29 MB-L3-01Mainboard Lantai 3 L3-SHT-01-T SHT20 1 Temperature 32.10 °C
10557 02/09/2026 14:55:29 MB-L3-01Mainboard Lantai 3 L3-HFT-01 Heat Flow Temperature 1 29.40 °C
10558 02/09/2026 14:55:29 MB-L5-01Mainboard Lantai 5 L5-LUX-03 Illuminance / LUX 3 165.20 lux
10559 02/09/2026 14:55:29 MB-L5-01Mainboard Lantai 5 L5-BGT-02 Black Globe Temperature 2 29.80 °C
10560 02/09/2026 14:55:29 MB-L3-01Mainboard Lantai 3 L3-LUX-02 Illuminance / LUX 2 33.20 lux
10561 02/09/2026 14:55:29 MB-L3-01Mainboard Lantai 3 L3-SHT-01-RH SHT20 1 Humidity 48.70 %RH
10562 02/09/2026 14:55:29 MB-L5-01Mainboard Lantai 5 L5-BGT-01 Black Globe Temperature 1 29.90 °C
10563 02/09/2026 14:55:29 MB-L3-01Mainboard Lantai 3 L3-AI-02 Analog Input 2 3.12 V
10564 02/09/2026 14:55:29 MB-L5-01Mainboard Lantai 5 L5-SHT-01-T SHT20 1 Temperature 32.30 °C
10565 02/09/2026 14:55:29 MB-L3-01Mainboard Lantai 3 L3-LUX-04 Illuminance / LUX 4 69.60 lux
10566 02/09/2026 14:55:29 MB-L5-01Mainboard Lantai 5 L5-HFT-02 Heat Flow Temperature 2 29.90 °C
10567 02/09/2026 14:55:29 MB-L3-01Mainboard Lantai 3 L3-HFT-02 Heat Flow Temperature 2 29.00 °C
10568 02/09/2026 14:55:29 MB-L5-01Mainboard Lantai 5 L5-HFT-01 Heat Flow Temperature 1 30.20 °C
10569 02/09/2026 14:55:29 MB-L5-01Mainboard Lantai 5 L5-LUX-06 Illuminance / LUX 6 208.40 lux
10570 02/09/2026 14:55:29 MB-L5-01Mainboard Lantai 5 L5-ST-02 Surface Temperature 2 30.50 °C
10571 02/09/2026 14:55:29 MB-L3-01Mainboard Lantai 3 L3-LUX-03 Illuminance / LUX 3 103.10 lux
10572 02/09/2026 14:55:29 MB-L5-01Mainboard Lantai 5 L5-LUX-04 Illuminance / LUX 4 211.70 lux
10573 02/09/2026 14:55:29 MB-L3-01Mainboard Lantai 3 L3-AI-03 Analog Input 3 3.12 V
10574 02/09/2026 14:55:29 MB-L5-01Mainboard Lantai 5 L5-LUX-02 Illuminance / LUX 2 124.80 lux
10575 02/09/2026 14:55:29 MB-L5-01Mainboard Lantai 5 L5-ST-01 Surface Temperature 1 30.30 °C
10576 02/09/2026 14:55:29 MB-L3-01Mainboard Lantai 3 L3-SHT-03-RH SHT20 3 Humidity 49.30 %RH
10577 02/09/2026 14:55:29 MB-L3-01Mainboard Lantai 3 L3-SHT-02-RH SHT20 2 Humidity 48.60 %RH
10578 02/09/2026 14:55:29 MB-L3-01Mainboard Lantai 3 L3-BGT-01 Black Globe Temperature 1 29.70 °C
10579 02/09/2026 14:55:29 MB-L5-01Mainboard Lantai 5 L5-RAD-02 Radiation 2 1.00 W/m²
10580 02/09/2026 14:55:29 MB-L3-01Mainboard Lantai 3 L3-LUX-01 Illuminance / LUX 1 24.30 lux
10581 02/09/2026 14:55:29 MB-L5-01Mainboard Lantai 5 L5-LUX-05 Illuminance / LUX 5 383.60 lux
10582 02/09/2026 14:55:29 MB-L3-01Mainboard Lantai 3 L3-RAD-02 Radiation 2 1.00 W/m²
10583 02/09/2026 14:55:29 MB-L3-01Mainboard Lantai 3 L3-SHT-03-T SHT20 3 Temperature 31.80 °C
10584 02/09/2026 14:55:29 MB-L5-01Mainboard Lantai 5 L5-AI-06 Analog Input 6 3.05 V
10585 02/09/2026 14:55:29 MB-L5-01Mainboard Lantai 5 L5-SHT-02-RH SHT20 2 Humidity 48.60 %RH
10586 02/09/2026 14:55:29 MB-L3-01Mainboard Lantai 3 L3-AI-04 Analog Input 4 3.12 V
10587 02/09/2026 14:55:29 MB-L3-01Mainboard Lantai 3 L3-BGT-02 Black Globe Temperature 2 29.70 °C
10588 02/09/2026 14:55:29 MB-L3-01Mainboard Lantai 3 L3-RAD-01 Radiation 1 1.00 W/m²
10589 02/09/2026 14:55:29 MB-L5-01Mainboard Lantai 5 L5-AI-05 Analog Input 5 3.05 V
10590 02/09/2026 14:55:29 MB-L5-01Mainboard Lantai 5 L5-SHT-03-T SHT20 3 Temperature 32.10 °C
10591 02/09/2026 14:55:29 MB-L5-01Mainboard Lantai 5 L5-SHT-02-T SHT20 2 Temperature 32.20 °C
10592 02/09/2026 14:55:29 MB-L5-01Mainboard Lantai 5 L5-SHT-03-RH SHT20 3 Humidity 49.60 %RH
10593 02/09/2026 14:55:29 MB-L5-01Mainboard Lantai 5 L5-AI-04 Analog Input 4 3.05 V
10594 02/09/2026 14:55:29 MB-L3-01Mainboard Lantai 3 L3-ST-01 Surface Temperature 1 29.80 °C
10595 02/09/2026 14:55:29 MB-L5-01Mainboard Lantai 5 L5-AI-03 Analog Input 3 3.05 V
10596 02/09/2026 14:55:29 MB-L3-01Mainboard Lantai 3 L3-AI-05 Analog Input 5 3.12 V
10597 02/09/2026 14:55:29 MB-L5-01Mainboard Lantai 5 L5-RAD-01 Radiation 1 1.00 W/m²
10598 02/09/2026 14:55:29 MB-L3-01Mainboard Lantai 3 L3-SHT-02-T SHT20 2 Temperature 32.00 °C
10599 02/09/2026 14:55:27 MB-L5-01Mainboard Lantai 5 L5-BGT-03 Black Globe Temperature 3 29.80 °C
10600 02/09/2026 14:55:27 MB-L3-01Mainboard Lantai 3 L3-SHT-01-T SHT20 1 Temperature 32.10 °C
Menampilkan maksimal 100 data per halaman